Regional Weather Roundup
Issued by NWS

Home | Current Version | Previous Version | Graphics & Text | Print | Product List | Glossary On
Versions: 1 2 3 4 5 6 7 8 9 10 11 12 13 14 15 16 17 18 19 20 21 22 23 24 25 26 27 28 29 30 31 32 33 34 35 36 37 38 39 40 41 42 43 44 45 46 47 48 49 50
000
ASUS45 KBOI 302110
RWRID

IDAHO REGIONAL WEATHER ROUNDUP
NATIONAL WEATHER SERVICE BOISE ID
300 PM MDT SUN AUG 30 2015

NOTE: "FAIR" INDICATES FEW OR NO CLOUDS BELOW 12000 FEET
WITH NO SIGNIFICANT WEATHER AND/OR OBSTRUCTIONS TO VISIBILITY

IDZ012-014-302200-
SOUTHWEST IDAHO


CITY           SKY/WX    TMP DP  RH WIND       PRES   REMARKS
BOISE          PTSUNNY   77  41  27 N10       29.97F
CALDWELL       PTSUNNY   77  41  27 NW12      29.98S
$$

IDZ016-017-302200-
SOUTHCENTRAL IDAHO


CITY           SKY/WX    TMP DP  RH WIND       PRES   REMARKS
BURLEY         MOSUNNY   76  41  28 W9        29.99F
JEROME         CLOUDY    74  39  28 NW12      30.02F
TWIN FALLS     CLOUDY    79  35  20 NW13      30.02S
$$

IDZ019>023-302200-
SOUTHEAST IDAHO


CITY           SKY/WX    TMP DP  RH WIND       PRES   REMARKS
IDAHO FALLS    MOSUNNY   79  43  27 S18G36    30.00F
POCATELLO      SUNNY     80  41  24 W14G25    30.01F
REXBURG        MOSUNNY   79  43  27 SW18G26   29.99F
$$

IDZ006-010-011-018-031-032-302200-
CENTRAL IDAHO MOUNTAINS


CITY           SKY/WX    TMP DP  RH WIND       PRES   REMARKS
MCCALL         CLOUDY    63  37  38 S13       30.04S
HAILEY         SUNNY     72  32  23 S9G17     30.06F
STANLEY          N/A     65  21  18 W6G20     30.08S
SALMON         MOSUNNY   79  34  19 SW16      29.81F
CHALLIS        SUNNY     77  21  12 SW15G23   29.93S
$$

IDZ002-004-006-007-026-302200-
NORTHERN IDAHO


CITY           SKY/WX    TMP DP  RH WIND       PRES   REMARKS
LEWISTON       CLOUDY    64  50  60 W12G26    29.95R
LOWELL           N/A     70  54  56 N5        29.89R
COEUR D`ALENE  CLOUDY    57  54  88 S10       29.93S
MULLAN PASS    RAIN      41  40  96 W8G18     30.01R FOG
$$


USA.gov is the U.S. government's official web portal to all federal, state and local government web resources and services.